Location: Kimberly
(42.5380°N, 114.3640°W)
Time: 01:20:05
(UTC-07:00)

N. Korean satellite - Visible Passes

Search period start: 14 December 2017 00:00
Search period end: 24 December 2017 00:00
Orbit: 461 x 513 km, 97.2° (Epoch: 13 December)

Date Brightness Start Highest point End Pass type
(mag) Time Alt. Az. Time Alt. Az. Time Alt. Az.
14 Dec 8.5 06:55:57 10° NNE 06:59:22 34° E 07:02:42 10° SSE visible
14 Dec 8.2 17:33:42 10° ESE 17:36:04 16° ENE 17:38:27 10° NNE visible
14 Dec 8.3 19:05:52 10° SSW 19:09:17 35° W 19:12:45 10° NNW visible
15 Dec 9.7 06:33:04 10° NE 06:35:39 18° E 06:38:12 10° SE visible
15 Dec 6.9 18:41:59 10° S 18:45:40 72° W 18:49:25 10° NNW visible
16 Dec 6.7 18:18:30 10° SSE 18:22:07 56° ENE 18:25:49 10° N visible
17 Dec 7.0 07:18:31 10° NNE 07:22:13 69° E 07:25:49 10° S visible
17 Dec 7.5 17:55:26 10° SE 17:58:40 29° ENE 18:01:57 10° N visible
17 Dec 9.5 19:29:29 10° SW 19:32:12 19° W 19:34:57 10° NW visible
18 Dec 8.6 06:55:13 10° NNE 06:58:35 33° E 07:01:52 10° SSE visible
18 Dec 8.2 17:32:55 10° ESE 17:35:18 16° ENE 17:37:40 10° NNE visible
18 Dec 8.3 19:05:03 10° SSW 19:08:30 36° W 19:12:00 10° NNW visible
19 Dec 9.7 06:32:21 10° NE 06:34:52 17° E 06:37:20 10° SE visible
19 Dec 6.8 18:41:10 10° S 18:44:53 73° W 18:48:39 10° NNW visible
20 Dec 6.7 18:17:41 10° SSE 18:21:20 55° ENE 18:25:02 10° N visible
20 Dec 10.2 19:54:42 10° W 19:55:11 10° W 19:55:40 10° W visible
21 Dec 7.0 07:17:44 10° NNE 07:21:24 67° ESE 07:24:57 10° S visible
21 Dec 7.5 17:54:38 10° SE 17:57:53 28° ENE 18:01:09 10° N visible
21 Dec 9.4 19:28:38 10° SW 19:31:24 19° W 19:34:10 10° NW visible
22 Dec 8.6 06:54:26 10° NNE 06:57:45 32° E 07:00:59 10° SSE visible
22 Dec 8.3 19:04:13 10° SSW 19:07:41 36° W 19:11:12 10° NNW visible
23 Dec 9.7 06:31:34 10° NE 06:34:01 17° E 06:36:25 10° SE visible
23 Dec 6.8 18:40:20 10° S 18:44:04 74° W 18:47:49 10° NNW visible
